Home > Weather > Petersburg > Past weeks

Flag for U.S.A. Weather for the Past 2 Weeks in Petersburg, Indiana, U.S.A.

Now
41 °F

Sunny.


Feels Like: 34 °F
Forecast: 33 / 53 °F
Wind: 12 mph from Southwest

Location: Huntingburg Airport

Current Time: Feb 7, 2016 at 10:48:38 AM

Latest Report: Feb 7, 2016 at 10:15 AM


Visibility: 10 mi

Pressure: 30.11 "Hg

Humidity: 57%

Dew point: 27 °F

Location of PetersburgLocation

Historic Weather in Petersburg — Graph

°F

Petersburg Temperature Yesterday

Maximum temperature yesterday: 52 °F (at 3:55 PM)
Minimum temperature yesterday: 25 °F (at 3:35 AM)
Average temperature yesterday: 36 °F

High & Low Weather Summary for the Past Weeks

 TemperatureHumidityPressure
High64 °F (Jan 30, 4:15 PM)93% (Jan 24, 9:15 AM)30.44 "Hg (Jan 24, 9:15 AM)
Low10 °F (Jan 24, 5:55 AM)39% (Jan 30, 4:35 PM)29.55 "Hg (Feb 2, 11:15 PM)
Average39 °F67%30.05 "Hg
* Reported Jan 23 9:15 AM — Feb 7 9:35 AM, Petersburg, Weather by CustomWeather, © 2016

Note: Actual official high and low records may vary slightly from our data, if they occured in-between our weather recording intervals... More about our weather records

Advertising

Petersburg Weather History for the Previous 24 Hours

 ConditionsComfort  
Time TempWeatherWind HumidityBarometerVisibility
9:35 AM
Sun, Feb 7
37 °FSunny.13 mph60%30.10 "Hg10 mi
9:15 AM37 °FSunny.12 mph60%30.11 "Hg10 mi
8:55 AM36 °FSunny.10 mph65%30.11 "Hg10 mi
8:35 AM34 °FSunny.9 mph65%30.11 "Hg10 mi
8:15 AM34 °FSunny.8 mph60%30.12 "Hg10 mi
7:55 AM32 °FSunny.8 mph64%30.12 "Hg10 mi
7:35 AM34 °FClear.8 mph60%30.13 "Hg10 mi
7:15 AM34 °FClear.7 mph60%30.13 "Hg10 mi
6:55 AM34 °FClear.8 mph60%30.15 "Hg10 mi
6:35 AM34 °FClear.7 mph60%30.15 "Hg10 mi
6:15 AM34 °FClear.6 mph60%30.15 "Hg10 mi
5:55 AM34 °FClear.6 mph60%30.15 "Hg10 mi
5:35 AM34 °FClear.6 mph60%30.16 "Hg10 mi
5:15 AM34 °FClear.7 mph60%30.16 "Hg10 mi
4:55 AM34 °FClear.6 mph60%30.17 "Hg10 mi
4:35 AM34 °FClear.6 mph60%30.17 "Hg10 mi
4:15 AM34 °FClear.5 mph60%30.18 "Hg10 mi
3:55 AM34 °FClear.5 mph60%30.19 "Hg10 mi
3:35 AM34 °FClear.7 mph60%30.19 "Hg10 mi
3:15 AM34 °FClear.6 mph60%30.19 "Hg10 mi
2:55 AM36 °FClear.5 mph56%30.20 "Hg10 mi
2:35 AM36 °FClear.3 mph56%30.21 "Hg10 mi
2:15 AM36 °FClear.6 mph56%30.21 "Hg10 mi
1:55 AM37 °FClear.7 mph52%30.21 "Hg10 mi
1:35 AM36 °FClear.7 mph56%30.21 "Hg10 mi
1:15 AM37 °FClear.7 mph52%30.22 "Hg10 mi
12:55 AM37 °FClear.6 mph56%30.23 "Hg10 mi
12:35 AM37 °FClear.6 mph56%30.23 "Hg10 mi
12:15 AM37 °FClear.8 mph60%30.23 "Hg10 mi
11:55 PM
Sat, Feb 6
37 °FClear.7 mph60%30.23 "Hg10 mi
11:35 PM37 °FClear.8 mph60%30.23 "Hg10 mi
11:15 PM37 °FClear.5 mph60%30.23 "Hg10 mi
10:35 PM39 °FClear.6 mph56%30.24 "Hg10 mi
10:15 PM39 °FClear.5 mph56%30.25 "Hg10 mi
9:55 PM39 °FClear.5 mph56%30.25 "Hg10 mi
9:35 PM39 °FClear.5 mph56%30.25 "Hg10 mi
9:15 PM39 °FClear.5 mph56%30.25 "Hg10 mi
8:35 PM39 °FClear.5 mph56%30.26 "Hg10 mi
8:15 PM41 °FClear.5 mph57%30.26 "Hg10 mi
7:55 PM41 °FClear.5 mph57%30.26 "Hg10 mi
7:15 PM45 °FClear.5 mph49%30.26 "Hg10 mi
6:55 PM45 °FClear.6 mph49%30.26 "Hg10 mi
6:35 PM46 °FClear.5 mph46%30.26 "Hg10 mi
6:15 PM48 °FSunny.3 mph46%30.26 "Hg10 mi
5:55 PM48 °FSunny.3 mph46%30.26 "Hg10 mi
5:35 PM48 °FSunny.6 mph46%30.26 "Hg10 mi
5:15 PM50 °FSunny.7 mph47%30.26 "Hg10 mi
4:55 PM52 °FSunny.7 mph44%30.26 "Hg10 mi
3:55 PM52 °FSunny.7 mph44%30.26 "Hg10 mi
3:35 PM50 °FSunny.5 mph43%30.26 "Hg10 mi
3:15 PM48 °FSunny.3 mph46%30.27 "Hg10 mi
2:55 PM48 °FSunny.6 mph46%30.27 "Hg10 mi
2:35 PM48 °FSunny.No wind50%30.28 "Hg10 mi
2:15 PM48 °FSunny.3 mph50%30.29 "Hg10 mi
1:55 PM46 °FSunny.No wind53%30.30 "Hg10 mi
1:35 PM46 °FSunny.No wind53%30.31 "Hg10 mi
1:15 PM45 °FSunny.No wind57%30.32 "Hg10 mi
12:55 PM43 °FSunny.3 mph57%30.34 "Hg10 mi
12:35 PM43 °FScattered clouds.6 mph61%30.35 "Hg10 mi
12:15 PM39 °FPartly sunny.5 mph65%30.36 "Hg10 mi
11:55 AM39 °FOvercast.3 mph65%30.36 "Hg10 mi
11:35 AM39 °FOvercast.6 mph65%30.37 "Hg10 mi
11:15 AM37 °FOvercast.5 mph65%30.37 "Hg10 mi
10:55 AM36 °FOvercast.3 mph70%30.37 "Hg10 mi
10:35 AM36 °FOvercast.6 mph70%30.36 "Hg10 mi
10:15 AM36 °FOvercast.7 mph70%30.36 "Hg10 mi
Weather by CustomWeather, © 2016

See weather overviewHow to use our weather pages